Location: Bord�res
(43.2000°N, 0.2167°W)
Time: 13:42:57
(UTC+00:00)

SJ-6B - Pass Details

Date: 03 March 2021
Orbit: 509 x 581 km, 97.6° (Epoch: 21 April)

Event Time Altitude Azimuth Distance (km) Brightness Sun altitude
Exits shadow 19:21:32 35° 103° (ESE) 949 3.4 -17.0°
Maximum altitude 19:22:25 39° 72° (ENE) 867 3.3 -17.1°
Drops below altitude 10° 19:26:13 10° 3° (N) 1,878 5.6 -17.8°
Sets 19:28:27 0° 356° (N) 2,770 6.6 -18.2°
